Time,TemperatureF,DewpointF,PressureIn,WindDirection,WindDirectionDegrees,WindSpeedMPH,WindSpeedGustMPH,Humidity,HourlyPrecipIn,Conditions,Clouds,dailyrainin,SolarRadiationWatts/m^2,SoftwareType,DateUTC
2013-01-24 00:04:00,31.8,28.9,29.74,NNE,22,2.6,2.6,89,0.00,CLR,,0.00,0.0,WeatherDisplay:10.37,2013-01-23 23:04:00,
2013-01-24 00:09:00,31.8,28.9,29.74,NNE,22,2.6,2.6,89,0.00,CLR,,0.00,0.0,WeatherDisplay:10.37,2013-01-23 23:09:00,
2013-01-24 00:14:00,31.8,28.9,29.74,NNE,22,2.3,2.3,89,0.00,CLR,,0.00,0.0,WeatherDisplay:10.37,2013-01-23 23:14:00,
2013-01-24 00:19:00,31.8,28.9,29.77,ENE,68,2.3,2.3,89,0.00,CLR,,0.00,0.0,WeatherDisplay:10.37,2013-01-23 23:19:00,
2013-01-24 00:24:00,31.8,28.9,29.77,NNE,22,0.0,0.0,89,0.00,CLR,,0.00,0.0,WeatherDisplay:10.37,2013-01-23 23:24:00,
2013-01-24 00:29:00,31.8,28.9,29.77,NE,45,0.0,0.0,89,0.00,CLR,,0.00,0.0,WeatherDisplay:10.37,2013-01-23 23:29:00,
2013-01-24 00:34:00,31.8,29.2,29.74,NE,45,3.8,3.8,90,0.00,CLR,,0.00,0.0,WeatherDisplay:10.37,2013-01-23 23:34:00,
2013-01-24 00:39:00,31.8,29.2,29.74,ENE,68,3.8,0.0,90,0.00,CLR,,0.00,0.0,WeatherDisplay:10.37,2013-01-23 23:39:00,
2013-01-24 00:44:00,31.8,29.2,29.74,ESE,112,3.5,3.5,90,0.00,CLR,,0.00,0.0,WeatherDisplay:10.37,2013-01-23 23:44:00,
2013-01-24 00:49:00,31.8,29.2,29.77,ESE,112,2.3,2.4,90,0.00,CLR,,0.00,0.0,WeatherDisplay:10.37,2013-01-23 23:49:00,
2013-01-24 00:54:00,31.8,29.2,29.77,NE,45,1.1,0.0,90,0.00,CLR,,0.00,0.0,WeatherDisplay:10.37,2013-01-23 23:54:00,
2013-01-24 00:59:00,31.8,29.2,29.77,East,90,0.0,0.0,90,0.00,CLR,,0.00,0.0,WeatherDisplay:10.37,2013-01-23 23:59:00,
2013-01-24 01:04:00,31.8,29.2,29.77,ESE,112,0.0,0.0,90,0.00,CLR,,0.00,0.0,WeatherDisplay:10.37,2013-01-24 00:04:00,
2013-01-24 01:09:00,31.8,29.5,29.74,ESE,112,3.6,3.6,91,0.00,CLR,,0.00,0.0,WeatherDisplay:10.37,2013-01-24 00:09:00,
2013-01-24 01:14:00,31.8,29.5,29.74,East,90,3.8,3.8,91,0.00,CLR,,0.00,0.0,WeatherDisplay:10.37,2013-01-24 00:14:00,
2013-01-24 01:19:00,31.8,29.5,29.74,ESE,112,2.3,2.4,91,0.00,CLR,,0.00,0.0,WeatherDisplay:10.37,2013-01-24 00:19:00,
2013-01-24 01:24:00,31.6,29.3,29.74,SE,135,2.6,2.9,91,0.00,CLR,,0.00,0.0,WeatherDisplay:10.37,2013-01-24 00:24:00,
2013-01-24 01:29:00,31.6,29.6,29.74,NNE,22,4.6,4.6,92,0.00,CLR,,0.00,0.0,WeatherDisplay:10.37,2013-01-24 00:29:00,
2013-01-24 01:34:00,31.5,29.4,29.74,NNE,22,4.6,4.6,92,0.00,CLR,,0.00,0.0,WeatherDisplay:10.37,2013-01-24 00:34:00,
2013-01-24 01:39:00,31.5,29.4,29.74,NNE,22,3.5,3.5,92,0.00,CLR,,0.00,0.0,WeatherDisplay:10.37,2013-01-24 00:39:00,
2013-01-24 01:44:00,31.5,29.4,29.74,ENE,68,3.6,3.6,92,0.00,CLR,,0.00,0.0,WeatherDisplay:10.37,2013-01-24 00:44:00,
2013-01-24 01:49:00,31.3,29.5,29.71,ESE,112,4.7,4.7,93,0.00,CLR,,0.00,0.0,WeatherDisplay:10.37,2013-01-24 00:49:00,
2013-01-24 01:54:00,31.3,29.5,29.71,ENE,68,3.5,3.5,93,0.00,CLR,,0.00,0.0,WeatherDisplay:10.37,2013-01-24 00:54:00,
2013-01-24 01:59:00,31.3,29.8,29.71,ESE,112,2.3,3.1,94,0.00,CLR,,0.00,0.0,WeatherDisplay:10.37,2013-01-24 00:59:00,
2013-01-24 02:04:00,31.3,29.8,29.74,WNW,292,0.0,0.9,94,0.00,CLR,,0.00,0.0,WeatherDisplay:10.37,2013-01-24 01:04:00,
2013-01-24 02:09:00,31.3,29.8,29.74,ESE,112,2.3,2.3,94,0.00,CLR,,0.00,0.0,WeatherDisplay:10.37,2013-01-24 01:09:00,
2013-01-24 02:14:00,31.3,29.8,29.74,ESE,112,3.5,3.5,94,0.00,CLR,,0.00,0.0,WeatherDisplay:10.37,2013-01-24 01:14:00,
2013-01-24 02:19:00,31.1,29.6,29.71,NW,315,3.5,3.5,94,0.00,CLR,,0.00,0.0,WeatherDisplay:10.37,2013-01-24 01:19:00,
2013-01-24 02:24:00,31.1,29.6,29.71,NW,315,3.5,3.5,94,0.00,CLR,,0.00,0.0,WeatherDisplay:10.37,2013-01-24 01:24:00,
2013-01-24 02:29:00,31.3,29.8,29.71,ESE,112,3.5,3.5,94,0.00,CLR,,0.00,0.0,WeatherDisplay:10.37,2013-01-24 01:29:00,
2013-01-24 02:34:00,31.1,29.8,29.77,ESE,112,2.4,2.4,95,0.00,CLR,,0.00,0.0,WeatherDisplay:10.37,2013-01-24 01:34:00,
2013-01-24 02:39:00,31.1,29.8,29.77,WNW,292,3.5,3.5,95,0.00,CLR,,0.00,0.0,WeatherDisplay:10.37,2013-01-24 01:39:00,
2013-01-24 02:44:00,31.1,29.8,29.77,ESE,112,5.8,5.8,95,0.00,CLR,,0.00,0.0,WeatherDisplay:10.37,2013-01-24 01:44:00,
2013-01-24 02:49:00,31.1,29.8,29.71,SSE,158,3.8,3.8,95,0.00,CLR,,0.00,0.0,WeatherDisplay:10.37,2013-01-24 01:49:00,
2013-01-24 02:54:00,31.1,30.1,29.71,North,0,4.6,4.6,96,0.00,CLR,,0.00,0.0,WeatherDisplay:10.37,2013-01-24 01:54:00,
2013-01-24 02:59:00,30.9,29.9,29.71,East,90,4.0,4.0,96,0.00,CLR,,0.00,0.0,WeatherDisplay:10.37,2013-01-24 01:59:00,
2013-01-24 03:04:00,30.9,29.9,29.74,East,90,4.6,4.6,96,0.00,CLR,,0.00,0.0,WeatherDisplay:10.37,2013-01-24 02:04:00,
2013-01-24 03:09:00,30.9,29.9,29.74,East,90,4.6,4.6,96,0.00,CLR,,0.00,0.0,WeatherDisplay:10.37,2013-01-24 02:09:00,
2013-01-24 03:14:00,30.9,29.9,29.74,East,90,4.6,4.6,96,0.00,CLR,,0.00,0.0,WeatherDisplay:10.37,2013-01-24 02:14:00,
2013-01-24 03:19:00,30.9,29.9,29.74,East,90,4.6,4.6,96,0.00,CLR,,0.00,0.0,WeatherDisplay:10.37,2013-01-24 02:19:00,
2013-01-24 03:24:00,30.7,29.7,29.74,East,90,4.6,4.6,96,0.00,CLR,,0.00,0.0,WeatherDisplay:10.37,2013-01-24 02:24:00,
2013-01-24 03:29:00,30.7,29.7,29.74,East,90,4.6,4.6,96,0.00,CLR,,0.00,0.0,WeatherDisplay:10.37,2013-01-24 02:29:00,
2013-01-24 03:34:00,30.7,29.7,29.77,East,90,4.6,4.6,96,0.00,CLR,,0.00,0.0,WeatherDisplay:10.37,2013-01-24 02:34:00,
2013-01-24 03:39:00,30.7,29.7,29.77,East,90,3.5,3.5,96,0.00,CLR,,0.00,0.0,WeatherDisplay:10.37,2013-01-24 02:39:00,
2013-01-24 03:44:00,30.7,29.7,29.77,ENE,68,3.5,3.5,96,0.00,CLR,,0.00,0.0,WeatherDisplay:10.37,2013-01-24 02:44:00,
2013-01-24 03:49:00,30.7,29.7,29.74,ENE,68,3.5,3.5,96,0.00,CLR,,0.00,0.0,WeatherDisplay:10.37,2013-01-24 02:49:00,
2013-01-24 03:54:00,30.7,30.0,29.74,ESE,112,3.6,4.0,97,0.00,CLR,,0.00,0.0,WeatherDisplay:10.37,2013-01-24 02:54:00,
2013-01-24 03:59:00,30.7,30.0,29.74,ESE,112,5.4,5.4,97,0.00,CLR,,0.00,0.0,WeatherDisplay:10.37,2013-01-24 02:59:00,
2013-01-24 04:04:00,30.6,29.8,29.71,NE,45,3.5,3.5,97,0.00,CLR,,0.00,0.0,WeatherDisplay:10.37,2013-01-24 03:04:00,
2013-01-24 04:09:00,30.6,29.8,29.71,NNE,22,4.6,4.6,97,0.00,CLR,,0.00,0.0,WeatherDisplay:10.37,2013-01-24 03:09:00,
2013-01-24 04:14:00,30.6,29.8,29.71,ESE,112,1.6,3.8,97,0.00,CLR,,0.00,0.0,WeatherDisplay:10.37,2013-01-24 03:14:00,
2013-01-24 04:19:00,30.6,29.8,29.71,NNE,22,4.9,4.9,97,0.00,CLR,,0.00,0.0,WeatherDisplay:10.37,2013-01-24 03:19:00,
2013-01-24 04:24:00,30.6,29.8,29.71,NNE,22,4.9,4.9,97,0.00,CLR,,0.00,0.0,WeatherDisplay:10.37,2013-01-24 03:24:00,
2013-01-24 04:29:00,30.6,29.8,29.71,NNW,338,4.6,4.6,97,0.00,CLR,,0.00,0.0,WeatherDisplay:10.37,2013-01-24 03:29:00,
2013-01-24 04:34:00,30.4,29.6,29.74,ENE,68,2.3,2.3,97,0.00,CLR,,0.00,0.0,WeatherDisplay:10.37,2013-01-24 03:34:00,
2013-01-24 04:39:00,30.4,29.9,29.74,WNW,292,6.9,6.9,98,0.00,CLR,,0.00,0.0,WeatherDisplay:10.37,2013-01-24 03:39:00,
2013-01-24 04:44:00,30.2,29.7,29.74,ENE,68,4.6,4.6,98,0.00,CLR,,0.00,0.0,WeatherDisplay:10.37,2013-01-24 03:44:00,
2013-01-24 04:49:00,30.2,29.7,29.77,NNE,22,4.6,4.6,98,0.00,CLR,,0.00,0.0,WeatherDisplay:10.37,2013-01-24 03:49:00,
2013-01-24 04:54:00,30.2,29.7,29.77,NNE,22,0.0,4.0,98,0.00,CLR,,0.00,0.0,WeatherDisplay:10.37,2013-01-24 03:54:00,
2013-01-24 04:59:00,30.2,29.7,29.77,East,90,3.5,3.5,98,0.00,CLR,,0.00,0.0,WeatherDisplay:10.37,2013-01-24 03:59:00,
2013-01-24 05:04:00,30.2,29.7,29.71,NNE,22,5.8,5.8,98,0.00,CLR,,0.00,0.0,WeatherDisplay:10.37,2013-01-24 04:04:00,
2013-01-24 05:09:00,30.2,29.7,29.71,ENE,68,2.3,4.9,98,0.00,CLR,,0.00,0.0,WeatherDisplay:10.37,2013-01-24 04:09:00,
2013-01-24 05:14:00,30.2,29.7,29.71,ESE,112,5.8,5.8,98,0.00,CLR,,0.00,0.0,WeatherDisplay:10.37,2013-01-24 04:14:00,
2013-01-24 05:19:00,30.2,29.7,29.71,SSE,158,4.9,4.9,98,0.00,CLR,,0.00,0.0,WeatherDisplay:10.37,2013-01-24 04:19:00,
2013-01-24 05:24:00,30.2,29.7,29.71,NNE,22,6.0,6.0,98,0.00,CLR,,0.00,0.0,WeatherDisplay:10.37,2013-01-24 04:24:00,
2013-01-24 05:29:00,30.2,29.7,29.71,NNE,22,6.0,6.0,98,0.00,CLR,,0.00,0.0,WeatherDisplay:10.37,2013-01-24 04:29:00,
2013-01-24 05:34:00,30.2,29.7,29.74,NNE,22,6.0,6.0,98,0.00,CLR,,0.00,0.0,WeatherDisplay:10.37,2013-01-24 04:34:00,
2013-01-24 05:39:00,30.0,29.5,29.74,ESE,112,6.2,6.2,98,0.00,CLR,,0.00,0.0,WeatherDisplay:10.37,2013-01-24 04:39:00,
2013-01-24 05:44:00,30.0,29.5,29.74,ESE,112,6.0,6.0,98,0.00,CLR,,0.00,0.0,WeatherDisplay:10.37,2013-01-24 04:44:00,
2013-01-24 05:49:00,30.0,29.5,29.71,ENE,68,5.8,5.8,98,0.00,CLR,,0.00,0.0,WeatherDisplay:10.37,2013-01-24 04:49:00,
2013-01-24 05:54:00,29.8,29.3,29.71,ENE,68,5.8,5.8,98,0.00,CLR,,0.00,0.0,WeatherDisplay:10.37,2013-01-24 04:54:00,
2013-01-24 05:59:00,29.8,29.3,29.71,ENE,68,5.8,5.8,98,0.00,CLR,,0.00,0.0,WeatherDisplay:10.37,2013-01-24 04:59:00,
2013-01-24 06:00:00,29.8,29.3,29.71,ENE,68,5.8,5.8,98,0.00,CLR,,0.00,0.0,WeatherDisplay:10.37,2013-01-24 05:00:00,
2013-01-24 06:02:00,29.8,29.3,29.71,ENE,68,5.8,5.8,98,0.00,CLR,,0.00,0.0,WeatherDisplay:10.37,2013-01-24 05:02:00,
2013-01-24 06:03:00,29.8,29.3,29.71,ENE,68,5.8,5.8,98,0.00,CLR,,0.00,0.0,WeatherDisplay:10.37,2013-01-24 05:03:00,
2013-01-24 06:08:00,29.7,29.2,29.71,NNE,22,3.5,3.5,98,0.00,CLR,,0.00,0.0,WeatherDisplay:10.37,2013-01-24 05:08:00,
2013-01-24 06:13:00,29.7,29.2,29.71,ENE,68,4.9,4.9,98,0.00,CLR,,0.00,0.0,WeatherDisplay:10.37,2013-01-24 05:13:00,
2013-01-24 06:18:00,29.7,29.2,29.71,ENE,68,4.7,4.7,98,0.00,CLR,,0.00,0.0,WeatherDisplay:10.37,2013-01-24 05:18:00,
2013-01-24 06:23:00,29.7,29.2,29.74,ENE,68,6.2,6.2,98,0.00,CLR,,0.00,0.0,WeatherDisplay:10.37,2013-01-24 05:23:00,
2013-01-24 06:28:00,29.5,29.0,29.74,ENE,68,6.2,6.2,98,0.00,CLR,,0.00,0.0,WeatherDisplay:10.37,2013-01-24 05:28:00,
2013-01-24 06:33:00,29.5,29.0,29.74,NNE,22,5.8,5.8,98,0.00,CLR,,0.00,0.0,WeatherDisplay:10.37,2013-01-24 05:33:00,
2013-01-24 06:38:00,29.5,29.0,29.71,NNE,22,3.5,4.3,98,0.00,CLR,,0.00,0.0,WeatherDisplay:10.37,2013-01-24 05:38:00,
2013-01-24 06:43:00,29.5,29.0,29.71,NW,315,5.9,5.9,98,0.00,CLR,,0.00,0.0,WeatherDisplay:10.37,2013-01-24 05:43:00,
2013-01-24 06:48:00,29.5,29.0,29.71,WSW,248,4.6,4.6,98,0.00,CLR,,0.00,0.0,WeatherDisplay:10.37,2013-01-24 05:48:00,
2013-01-24 06:53:00,29.5,29.0,29.71,NW,315,2.9,2.9,98,0.00,CLR,,0.00,0.0,WeatherDisplay:10.37,2013-01-24 05:53:00,
2013-01-24 06:58:00,29.5,29.0,29.71,ESE,112,2.3,4.7,98,0.00,CLR,,0.00,0.0,WeatherDisplay:10.37,2013-01-24 05:58:00,
2013-01-24 07:03:00,29.3,28.8,29.71,NNE,22,3.5,3.5,98,0.00,OVC,,0.00,0.0,WeatherDisplay:10.37,2013-01-24 06:03:00,
2013-01-24 07:08:00,29.3,28.8,29.77,ESE,112,3.6,3.6,98,0.00,OVC,,0.00,0.0,WeatherDisplay:10.37,2013-01-24 06:08:00,
2013-01-24 07:13:00,29.3,28.8,29.77,ESE,112,3.6,3.6,98,0.00,OVC,,0.00,0.0,WeatherDisplay:10.37,2013-01-24 06:13:00,
2013-01-24 07:18:00,29.3,28.8,29.77,WSW,248,0.0,0.0,98,0.00,OVC,,0.00,0.0,WeatherDisplay:10.37,2013-01-24 06:18:00,
2013-01-24 07:23:00,29.1,28.6,29.74,ESE,112,2.9,3.3,98,0.00,OVC,,0.00,0.0,WeatherDisplay:10.37,2013-01-24 06:23:00,
2013-01-24 07:28:00,29.1,28.6,29.74,NE,45,4.9,4.9,98,0.00,OVC,,0.00,0.0,WeatherDisplay:10.37,2013-01-24 06:28:00,
2013-01-24 07:33:00,29.1,28.6,29.74,ESE,112,3.8,4.5,98,0.00,OVC,,0.00,0.0,WeatherDisplay:10.37,2013-01-24 06:33:00,
2013-01-24 07:38:00,28.9,28.4,29.74,ESE,112,6.9,6.9,98,0.00,OVC,,0.00,0.0,WeatherDisplay:10.37,2013-01-24 06:38:00,
2013-01-24 07:43:00,28.9,28.4,29.74,ESE,112,1.1,3.1,98,0.00,OVC,,0.00,0.0,WeatherDisplay:10.37,2013-01-24 06:43:00,
2013-01-24 07:48:00,28.9,28.4,29.74,North,0,3.5,3.5,98,0.00,OVC,,0.00,0.0,WeatherDisplay:10.37,2013-01-24 06:48:00,
2013-01-24 07:53:00,28.9,28.4,29.74,NE,45,5.8,5.8,98,0.00,OVC,,0.00,0.0,WeatherDisplay:10.37,2013-01-24 06:53:00,
2013-01-24 07:58:00,28.9,28.4,29.74,ENE,68,4.6,7.4,98,0.00,OVC,,0.00,0.0,WeatherDisplay:10.37,2013-01-24 06:58:00,
2013-01-24 08:03:00,28.9,28.4,29.74,ENE,68,9.8,9.8,98,0.00,OVC,,0.00,0.0,WeatherDisplay:10.37,2013-01-24 07:03:00,
2013-01-24 08:08:00,28.9,28.4,29.77,NNW,338,5.8,5.8,98,0.00,OVC,,0.00,0.0,WeatherDisplay:10.37,2013-01-24 07:08:00,
2013-01-24 08:13:00,28.9,28.4,29.77,ESE,112,11.5,11.5,98,0.00,OVC,,0.00,0.0,WeatherDisplay:10.37,2013-01-24 07:13:00,
2013-01-24 08:18:00,28.9,28.4,29.77,ENE,68,5.9,5.9,98,0.00,OVC,,0.00,0.0,WeatherDisplay:10.37,2013-01-24 07:18:00,
2013-01-24 08:23:00,29.1,28.6,29.71,WSW,248,2.6,4.0,98,0.00,OVC,,0.00,0.0,WeatherDisplay:10.37,2013-01-24 07:23:00,
2013-01-24 08:28:00,29.1,28.6,29.71,ENE,68,5.9,6.2,98,0.00,OVC,,0.00,0.0,WeatherDisplay:10.37,2013-01-24 07:28:00,
2013-01-24 08:33:00,29.1,28.6,29.71,NNE,22,5.8,5.8,98,0.00,OVC,,0.00,0.0,WeatherDisplay:10.37,2013-01-24 07:33:00,
2013-01-24 08:38:00,29.1,28.6,29.74,ESE,112,9.7,9.7,98,0.00,OVC,,0.00,0.0,WeatherDisplay:10.37,2013-01-24 07:38:00,
2013-01-24 08:43:00,29.3,28.8,29.74,NNE,22,2.6,6.2,98,0.00,OVC,,0.00,0.0,WeatherDisplay:10.37,2013-01-24 07:43:00,
2013-01-24 08:48:00,29.3,28.8,29.74,ENE,68,9.2,9.2,98,0.00,OVC,,0.00,0.0,WeatherDisplay:10.37,2013-01-24 07:48:00,
2013-01-24 08:53:00,29.3,28.8,29.74,ENE,68,9.2,9.2,98,0.00,OVC,,0.00,0.0,WeatherDisplay:10.37,2013-01-24 07:53:00,
2013-01-24 08:58:00,29.3,28.8,29.74,NNE,22,9.2,9.7,98,0.00,OVC,,0.00,0.0,WeatherDisplay:10.37,2013-01-24 07:58:00,
2013-01-24 09:03:00,29.3,28.8,29.74,ENE,68,7.1,7.1,98,0.00,OVC,,0.00,0.0,WeatherDisplay:10.37,2013-01-24 08:03:00,
2013-01-24 09:08:00,29.3,28.8,29.74,NE,45,12.8,12.8,98,0.00,OVC,,0.00,0.0,WeatherDisplay:10.37,2013-01-24 08:08:00,
2013-01-24 09:13:00,29.3,28.8,29.74,NNE,22,12.7,12.7,98,0.00,OVC,,0.00,0.0,WeatherDisplay:10.37,2013-01-24 08:13:00,
2013-01-24 09:18:00,29.5,29.0,29.74,NNE,22,5.8,5.8,98,0.00,OVC,,0.00,0.0,WeatherDisplay:10.37,2013-01-24 08:18:00,
2013-01-24 09:23:00,29.5,29.0,29.74,ENE,68,9.2,9.2,98,0.00,OVC,,0.00,0.0,WeatherDisplay:10.37,2013-01-24 08:23:00,
2013-01-24 09:28:00,29.5,29.0,29.74,ENE,68,9.2,9.2,98,0.00,OVC,,0.00,0.0,WeatherDisplay:10.37,2013-01-24 08:28:00,
2013-01-24 09:33:00,29.5,29.0,29.74,ESE,112,4.6,4.6,98,0.00,OVC,,0.00,0.0,WeatherDisplay:10.37,2013-01-24 08:33:00,
2013-01-24 09:38:00,29.7,29.2,29.71,NNE,22,4.7,6.0,98,0.00,OVC,,0.00,0.0,WeatherDisplay:10.37,2013-01-24 08:38:00,
2013-01-24 09:43:00,29.7,29.2,29.71,ESE,112,10.4,10.4,98,0.00,OVC,,0.00,0.0,WeatherDisplay:10.37,2013-01-24 08:43:00,
2013-01-24 09:48:00,29.8,29.3,29.71,ESE,112,10.4,10.4,98,0.00,OVC,,0.00,0.0,WeatherDisplay:10.37,2013-01-24 08:48:00,
2013-01-24 09:53:00,30.0,29.5,29.71,NE,45,5.9,7.6,98,0.00,OVC,,0.00,0.0,WeatherDisplay:10.37,2013-01-24 08:53:00,
2013-01-24 09:58:00,30.0,29.5,29.71,ESE,112,4.6,7.6,98,0.00,OVC,,0.00,0.0,WeatherDisplay:10.37,2013-01-24 08:58:00,
2013-01-24 10:03:00,30.2,29.7,29.71,NNE,22,6.9,6.9,98,0.00,OVC,,0.00,0.0,WeatherDisplay:10.37,2013-01-24 09:03:00,
2013-01-24 10:08:00,30.2,29.7,29.77,NNE,22,5.8,5.8,98,0.00,OVC,,0.00,0.0,WeatherDisplay:10.37,2013-01-24 09:08:00,
2013-01-24 10:13:00,30.4,29.9,29.77,ESE,112,9.2,9.2,98,0.00,OVC,,0.00,0.0,WeatherDisplay:10.37,2013-01-24 09:13:00,
2013-01-24 10:18:00,30.4,29.9,29.77,NNW,338,10.5,10.5,98,0.00,OVC,,0.00,0.0,WeatherDisplay:10.37,2013-01-24 09:18:00,
2013-01-24 10:23:00,30.6,30.1,29.71,ESE,112,13.8,13.8,98,0.00,OVC,,0.00,0.0,WeatherDisplay:10.37,2013-01-24 09:23:00,
2013-01-24 10:28:00,30.6,30.1,29.71,East,90,9.2,9.2,98,0.00,OVC,,0.00,0.0,WeatherDisplay:10.37,2013-01-24 09:28:00,
2013-01-24 10:33:00,30.7,30.2,29.71,NNE,22,5.8,6.0,98,0.00,OVC,,0.00,0.0,WeatherDisplay:10.37,2013-01-24 09:33:00,
2013-01-24 10:38:00,30.7,30.2,29.74,ENE,68,8.1,8.1,98,0.00,OVC,,0.00,0.0,WeatherDisplay:10.37,2013-01-24 09:38:00,
2013-01-24 10:43:00,30.9,30.4,29.74,NNE,22,8.1,8.1,98,0.00,OVC,,0.00,0.0,WeatherDisplay:10.37,2013-01-24 09:43:00,
2013-01-24 10:48:00,30.9,30.4,29.74,NNE,22,10.4,10.4,98,0.00,OVC,,0.00,0.0,WeatherDisplay:10.37,2013-01-24 09:48:00,
2013-01-24 10:53:00,31.1,30.6,29.74,NNE,22,10.4,10.4,98,0.00,OVC,,0.00,0.0,WeatherDisplay:10.37,2013-01-24 09:53:00,
2013-01-24 10:58:00,31.1,30.6,29.74,NNE,22,10.4,10.4,98,0.00,OVC,,0.00,0.0,WeatherDisplay:10.37,2013-01-24 09:58:00,
2013-01-24 11:03:00,31.3,30.8,29.74,East,90,4.6,4.6,98,0.00,OVC,,0.00,0.0,WeatherDisplay:10.37,2013-01-24 10:03:00,
2013-01-24 11:08:00,31.3,30.8,29.74,NNE,22,9.2,9.2,98,0.00,OVC,,0.00,0.0,WeatherDisplay:10.37,2013-01-24 10:08:00,
2013-01-24 11:13:00,31.3,30.8,29.74,ESE,112,8.5,8.5,98,0.00,OVC,,0.00,0.0,WeatherDisplay:10.37,2013-01-24 10:13:00,
2013-01-24 11:18:00,31.5,31.0,29.74,NE,45,6.2,8.5,98,0.00,OVC,,0.00,0.0,WeatherDisplay:10.37,2013-01-24 10:18:00,
2013-01-24 11:23:00,31.5,31.0,29.71,NNE,22,8.1,8.1,98,0.00,OVC,,0.00,0.0,WeatherDisplay:10.37,2013-01-24 10:23:00,
2013-01-24 11:28:00,31.5,31.0,29.71,ESE,112,10.4,10.4,98,0.00,OVC,,0.00,0.0,WeatherDisplay:10.37,2013-01-24 10:28:00,
2013-01-24 11:33:00,31.5,31.0,29.71,ENE,68,4.6,4.7,98,0.00,OVC,,0.00,0.0,WeatherDisplay:10.37,2013-01-24 10:33:00,
2013-01-24 11:38:00,31.6,31.1,29.71,East,90,3.5,3.5,98,0.00,OVC,,0.00,0.0,WeatherDisplay:10.37,2013-01-24 10:38:00,
2013-01-24 11:43:00,31.6,31.1,29.71,East,90,3.5,3.5,98,0.00,OVC,,0.00,0.0,WeatherDisplay:10.37,2013-01-24 10:43:00,
2013-01-24 11:48:00,32.0,31.5,29.71,ENE,68,5.8,5.8,98,0.00,OVC,,0.00,0.0,WeatherDisplay:10.37,2013-01-24 10:48:00,
2013-01-24 11:53:00,32.0,31.5,29.74,ENE,68,6.9,8.7,98,0.00,OVC,,0.00,0.0,WeatherDisplay:10.37,2013-01-24 10:53:00,
2013-01-24 11:58:00,32.2,31.7,29.74,ENE,68,5.8,5.8,98,0.00,OVC,,0.00,0.0,WeatherDisplay:10.37,2013-01-24 10:58:00,
2013-01-24 12:03:00,32.2,31.7,29.74,ESE,112,6.9,6.9,98,0.00,OVC,,0.00,0.0,WeatherDisplay:10.37,2013-01-24 11:03:00,
2013-01-24 12:08:00,32.4,31.9,29.71,ENE,68,12.8,12.8,98,0.00,OVC,,0.00,0.0,WeatherDisplay:10.37,2013-01-24 11:08:00,
2013-01-24 12:13:00,32.4,31.1,29.71,ENE,68,3.5,3.6,95,0.00,OVC,,0.00,0.0,WeatherDisplay:10.37,2013-01-24 11:13:00,
2013-01-24 12:18:00,32.4,30.6,29.71,East,90,5.6,5.6,93,0.00,OVC,,0.00,0.0,WeatherDisplay:10.37,2013-01-24 11:18:00,
2013-01-24 12:23:00,32.5,30.7,29.71,ENE,68,6.9,6.9,93,0.00,OVC,,0.00,0.0,WeatherDisplay:10.37,2013-01-24 11:23:00,
2013-01-24 12:28:00,32.5,30.5,29.71,East,90,3.8,5.9,92,0.00,OVC,,0.00,0.0,WeatherDisplay:10.37,2013-01-24 11:28:00,
2013-01-24 12:33:00,32.5,29.9,29.71,East,90,3.8,5.9,90,0.00,OVC,,0.00,0.0,WeatherDisplay:10.37,2013-01-24 11:33:00,
2013-01-24 12:38:00,32.7,29.8,29.71,NE,45,6.9,6.9,89,0.00,OVC,,0.00,0.0,WeatherDisplay:10.37,2013-01-24 11:38:00,
2013-01-24 12:43:00,32.7,29.8,29.71,NNE,22,6.9,6.9,89,0.00,OVC,,0.00,0.0,WeatherDisplay:10.37,2013-01-24 11:43:00,
2013-01-24 12:48:00,32.7,29.8,29.71,NNW,338,13.8,13.8,89,0.00,OVC,,0.00,0.0,WeatherDisplay:10.37,2013-01-24 11:48:00,
2013-01-24 12:53:00,32.9,30.0,29.71,ENE,68,10.0,10.0,89,0.00,RA,,0.00,0.0,WeatherDisplay:10.37,2013-01-24 11:53:00,
2013-01-24 12:58:00,32.9,29.7,29.71,ENE,68,10.4,10.4,88,0.00,RA,,0.00,0.0,WeatherDisplay:10.37,2013-01-24 11:58:00,
2013-01-24 13:03:00,33.1,29.6,29.71,East,90,9.2,9.2,87,0.00,,,0.00,0.0,WeatherDisplay:10.37,2013-01-24 12:03:00,
2013-01-24 13:08:00,33.1,29.6,29.68,East,90,8.1,8.1,87,0.00,CLR,,0.00,0.0,WeatherDisplay:10.37,2013-01-24 12:08:00,
2013-01-24 13:13:00,33.3,29.8,29.68,NNE,22,4.6,4.6,87,0.00,OVC,,0.00,0.0,WeatherDisplay:10.37,2013-01-24 12:13:00,
2013-01-24 13:18:00,33.3,29.8,29.68,NNW,338,8.1,8.1,87,0.00,OVC,,0.00,0.0,WeatherDisplay:10.37,2013-01-24 12:18:00,
2013-01-24 13:23:00,33.4,29.7,29.68,ENE,68,11.5,11.5,86,0.00,OVC,,0.00,0.0,WeatherDisplay:10.37,2013-01-24 12:23:00,
2013-01-24 13:28:00,33.4,29.7,29.68,NNE,22,9.4,9.4,86,0.01,RA,,0.01,0.0,WeatherDisplay:10.37,2013-01-24 12:28:00,
2013-01-24 13:33:00,33.6,29.6,29.68,ENE,68,8.1,8.1,85,0.01,RA,,0.01,0.0,WeatherDisplay:10.37,2013-01-24 12:33:00,
2013-01-24 13:38:00,33.6,29.6,29.68,NNE,22,7.1,7.1,85,0.01,RA,,0.01,0.0,WeatherDisplay:10.37,2013-01-24 12:38:00,
2013-01-24 13:43:00,33.8,29.8,29.68,NNE,22,5.8,5.8,85,0.01,,,0.01,0.0,WeatherDisplay:10.37,2013-01-24 12:43:00,
2013-01-24 13:48:00,33.8,29.8,29.68,NNE,22,6.2,6.2,85,0.01,CLR,,0.01,0.0,WeatherDisplay:10.37,2013-01-24 12:48:00,
2013-01-24 13:53:00,33.6,29.6,29.71,NNE,22,9.2,9.2,85,0.01,OVC,,0.01,0.0,WeatherDisplay:10.37,2013-01-24 12:53:00,
2013-01-24 13:58:00,33.6,29.6,29.71,ENE,68,3.5,3.8,85,0.01,OVC,,0.01,0.0,WeatherDisplay:10.37,2013-01-24 12:58:00,
2013-01-24 14:03:00,33.6,29.6,29.71,NNE,22,8.1,8.1,85,0.01,OVC,,0.01,0.0,WeatherDisplay:10.37,2013-01-24 13:03:00,
2013-01-24 14:08:00,33.8,29.8,29.68,NNE,22,4.6,4.6,85,0.01,OVC,,0.01,0.0,WeatherDisplay:10.37,2013-01-24 13:08:00,
2013-01-24 14:13:00,33.8,29.8,29.68,ENE,68,2.3,4.0,85,0.01,OVC,,0.01,0.0,WeatherDisplay:10.37,2013-01-24 13:13:00,
2013-01-24 14:18:00,33.8,29.8,29.68,East,90,10.4,10.4,85,0.01,OVC,,0.01,0.0,WeatherDisplay:10.37,2013-01-24 13:18:00,
2013-01-24 14:23:00,33.8,29.8,29.68,ENE,68,10.4,10.4,85,0.01,OVC,,0.01,0.0,WeatherDisplay:10.37,2013-01-24 13:23:00,
2013-01-24 14:28:00,33.8,29.8,29.68,NNE,22,2.9,4.0,85,0.01,OVC,,0.01,0.0,WeatherDisplay:10.37,2013-01-24 13:28:00,
2013-01-24 14:33:00,33.8,29.5,29.68,WNW,292,4.6,6.4,84,0.00,OVC,,0.01,0.0,WeatherDisplay:10.37,2013-01-24 13:33:00,
2013-01-24 14:38:00,33.8,29.5,29.68,ENE,68,8.1,8.1,84,0.00,OVC,,0.01,0.0,WeatherDisplay:10.37,2013-01-24 13:38:00,
2013-01-24 14:43:00,33.8,29.8,29.68,ESE,112,4.9,4.9,85,0.00,OVC,,0.01,0.0,WeatherDisplay:10.37,2013-01-24 13:43:00,
2013-01-24 14:48:00,33.8,29.8,29.68,NNE,22,4.6,4.6,85,0.00,OVC,,0.01,0.0,WeatherDisplay:10.37,2013-01-24 13:48:00,
2013-01-24 14:53:00,33.8,29.8,29.68,NNE,22,3.6,3.8,85,0.00,OVC,,0.01,0.0,WeatherDisplay:10.37,2013-01-24 13:53:00,
2013-01-24 14:58:00,33.6,29.6,29.68,ENE,68,3.6,5.6,85,0.00,OVC,,0.01,0.0,WeatherDisplay:10.37,2013-01-24 13:58:00,
2013-01-24 15:03:00,33.4,29.4,29.68,ENE,68,3.6,5.6,85,0.00,OVC,,0.01,0.0,WeatherDisplay:10.37,2013-01-24 14:03:00,
2013-01-24 15:08:00,33.3,29.2,29.68,ENE,68,4.9,4.9,85,0.00,OVC,,0.01,0.0,WeatherDisplay:10.37,2013-01-24 14:08:00,
2013-01-24 15:13:00,33.1,29.1,29.68,ESE,112,2.6,2.6,85,0.00,OVC,,0.01,0.0,WeatherDisplay:10.37,2013-01-24 14:13:00,
2013-01-24 15:18:00,33.1,29.1,29.68,NNW,338,2.6,3.6,85,0.00,OVC,,0.01,0.0,WeatherDisplay:10.37,2013-01-24 14:18:00,
2013-01-24 15:23:00,33.1,29.3,29.71,NNE,22,3.5,3.5,86,0.00,OVC,,0.01,0.0,WeatherDisplay:10.37,2013-01-24 14:23:00,
2013-01-24 15:28:00,33.1,29.3,29.71,NNW,338,4.6,4.6,86,0.00,OVC,,0.01,0.0,WeatherDisplay:10.37,2013-01-24 14:28:00,
2013-01-24 15:33:00,32.9,29.2,29.71,ENE,68,4.0,4.0,86,0.00,OVC,,0.01,0.0,WeatherDisplay:10.37,2013-01-24 14:33:00,
2013-01-24 15:38:00,32.9,29.5,29.68,ENE,68,2.9,2.9,87,0.00,OVC,,0.01,0.0,WeatherDisplay:10.37,2013-01-24 14:38:00,
2013-01-24 15:43:00,32.9,29.5,29.68,ENE,68,2.3,2.3,87,0.00,OVC,,0.01,0.0,WeatherDisplay:10.37,2013-01-24 14:43:00,
2013-01-24 15:48:00,32.7,29.3,29.68,ENE,68,2.3,2.3,87,0.00,OVC,,0.01,0.0,WeatherDisplay:10.37,2013-01-24 14:48:00,
2013-01-24 15:53:00,32.7,29.3,29.68,NNE,22,5.9,5.9,87,0.00,OVC,,0.01,0.0,WeatherDisplay:10.37,2013-01-24 14:53:00,
2013-01-24 15:58:00,32.7,29.3,29.68,NNW,338,4.6,4.6,87,0.00,OVC,,0.01,0.0,WeatherDisplay:10.37,2013-01-24 14:58:00,
2013-01-24 16:03:00,32.5,29.1,29.68,NNE,22,4.6,4.6,87,0.00,OVC,,0.01,0.0,WeatherDisplay:10.37,2013-01-24 15:03:00,
2013-01-24 16:08:00,32.5,29.1,29.68,NNE,22,5.8,5.8,87,0.00,OVC,,0.01,0.0,WeatherDisplay:10.37,2013-01-24 15:08:00,
2013-01-24 16:13:00,32.5,29.1,29.68,NNE,22,5.8,5.8,87,0.00,OVC,,0.01,0.0,WeatherDisplay:10.37,2013-01-24 15:13:00,
2013-01-24 16:18:00,32.4,28.9,29.68,ENE,68,5.8,5.8,87,0.00,OVC,,0.01,0.0,WeatherDisplay:10.37,2013-01-24 15:18:00,
2013-01-24 16:23:00,32.2,28.7,29.68,ENE,68,3.5,4.0,87,0.00,OVC,,0.01,0.0,WeatherDisplay:10.37,2013-01-24 15:23:00,
2013-01-24 16:28:00,32.2,28.7,29.68,ENE,68,3.5,3.5,87,0.00,OVC,,0.01,0.0,WeatherDisplay:10.37,2013-01-24 15:28:00,
2013-01-24 16:33:00,32.2,28.7,29.68,North,0,4.6,4.6,87,0.00,OVC,,0.01,0.0,WeatherDisplay:10.37,2013-01-24 15:33:00,
2013-01-24 16:38:00,32.2,28.7,29.68,NNE,22,5.8,5.8,87,0.00,OVC,,0.01,0.0,WeatherDisplay:10.37,2013-01-24 15:38:00,
2013-01-24 16:43:00,32.0,28.6,29.68,ESE,112,6.9,6.9,87,0.00,OVC,,0.01,0.0,WeatherDisplay:10.37,2013-01-24 15:43:00,
2013-01-24 16:48:00,32.0,28.6,29.68,NNE,22,0.0,2.0,87,0.00,OVC,,0.01,0.0,WeatherDisplay:10.37,2013-01-24 15:48:00,
2013-01-24 16:53:00,32.0,28.6,29.68,East,90,5.8,5.8,87,0.00,OVC,,0.01,0.0,WeatherDisplay:10.37,2013-01-24 15:53:00,
2013-01-24 16:58:00,32.0,28.6,29.68,East,90,5.8,5.8,87,0.00,OVC,,0.01,0.0,WeatherDisplay:10.37,2013-01-24 15:58:00,
2013-01-24 17:03:00,32.0,28.6,29.68,NNE,22,2.6,3.6,87,0.00,CLR,,0.01,0.0,WeatherDisplay:10.37,2013-01-24 16:03:00,
2013-01-24 17:08:00,31.8,28.4,29.71,North,0,3.6,3.6,87,0.00,CLR,,0.01,0.0,WeatherDisplay:10.37,2013-01-24 16:08:00,
2013-01-24 17:13:00,31.8,28.4,29.71,NNE,22,2.6,2.6,87,0.00,CLR,,0.01,0.0,WeatherDisplay:10.37,2013-01-24 16:13:00,
2013-01-24 17:18:00,31.6,28.2,29.71,NNW,338,3.6,3.6,87,0.00,CLR,,0.01,0.0,WeatherDisplay:10.37,2013-01-24 16:18:00,
2013-01-24 17:23:00,31.6,28.2,29.71,NW,315,3.5,3.5,87,0.00,CLR,,0.01,0.0,WeatherDisplay:10.37,2013-01-24 16:23:00,
2013-01-24 17:28:00,31.5,28.0,29.71,NW,315,2.3,2.9,87,0.00,CLR,,0.01,0.0,WeatherDisplay:10.37,2013-01-24 16:28:00,
2013-01-24 17:33:00,31.3,27.6,29.71,NW,315,2.3,2.9,86,0.00,CLR,,0.01,0.0,WeatherDisplay:10.37,2013-01-24 16:33:00,
2013-01-24 17:38:00,31.1,27.4,29.65,NW,315,2.3,2.9,86,0.00,CLR,,0.01,0.0,WeatherDisplay:10.37,2013-01-24 16:38:00,
2013-01-24 17:43:00,31.1,27.4,29.65,North,0,4.9,4.9,86,0.00,CLR,,0.01,0.0,WeatherDisplay:10.37,2013-01-24 16:43:00,
2013-01-24 17:48:00,30.7,27.0,29.65,North,0,4.9,4.9,86,0.00,CLR,,0.01,0.0,WeatherDisplay:10.37,2013-01-24 16:48:00,
2013-01-24 17:53:00,30.7,27.0,29.68,North,0,2.6,2.6,86,0.00,CLR,,0.01,0.0,WeatherDisplay:10.37,2013-01-24 16:53:00,
2013-01-24 17:58:00,30.6,26.9,29.68,NNE,22,3.5,3.5,86,0.00,CLR,,0.01,0.0,WeatherDisplay:10.37,2013-01-24 16:58:00,
2013-01-24 18:03:00,30.4,26.7,29.68,NNE,22,3.5,3.5,86,0.00,CLR,,0.01,0.0,WeatherDisplay:10.37,2013-01-24 17:03:00,
2013-01-24 18:08:00,30.2,26.5,29.68,NNE,22,3.5,3.5,86,0.00,CLR,,0.01,0.0,WeatherDisplay:10.37,2013-01-24 17:08:00,
2013-01-24 18:13:00,30.2,26.5,29.68,NNE,22,3.5,3.5,86,0.00,CLR,,0.01,0.0,WeatherDisplay:10.37,2013-01-24 17:13:00,
2013-01-24 18:18:00,30.2,26.5,29.68,NNE,22,3.5,3.5,86,0.00,CLR,,0.01,0.0,WeatherDisplay:10.37,2013-01-24 17:18:00,
2013-01-24 18:23:00,30.2,26.5,29.71,NNE,22,3.5,3.5,86,0.00,CLR,,0.01,0.0,WeatherDisplay:10.37,2013-01-24 17:23:00,
2013-01-24 18:28:00,30.2,26.5,29.71,NNE,22,3.5,3.5,86,0.00,CLR,,0.01,0.0,WeatherDisplay:10.37,2013-01-24 17:28:00,
2013-01-24 18:33:00,30.2,26.5,29.71,NNE,22,3.5,3.5,86,0.00,CLR,,0.01,0.0,WeatherDisplay:10.37,2013-01-24 17:33:00,
2013-01-24 18:38:00,30.2,26.5,29.68,NNE,22,3.5,3.5,86,0.00,CLR,,0.01,0.0,WeatherDisplay:10.37,2013-01-24 17:38:00,
2013-01-24 18:43:00,30.2,26.5,29.68,NNE,22,3.5,3.5,86,0.00,CLR,,0.01,0.0,WeatherDisplay:10.37,2013-01-24 17:43:00,
2013-01-24 18:48:00,30.2,26.5,29.68,NNE,22,3.5,3.5,86,0.00,CLR,,0.01,0.0,WeatherDisplay:10.37,2013-01-24 17:48:00,
2013-01-24 18:53:00,30.2,26.2,29.68,NNE,22,3.5,3.5,85,0.00,CLR,,0.01,0.0,WeatherDisplay:10.37,2013-01-24 17:53:00,
2013-01-24 18:58:00,30.0,26.1,29.68,NNE,22,3.5,3.5,85,0.00,CLR,,0.01,0.0,WeatherDisplay:10.37,2013-01-24 17:58:00,
2013-01-24 19:03:00,30.0,25.8,29.68,NNE,22,3.5,3.5,84,0.00,CLR,,0.01,0.0,WeatherDisplay:10.37,2013-01-24 18:03:00,
2013-01-24 19:08:00,30.0,25.8,29.68,NNE,22,3.5,3.5,84,0.00,CLR,,0.01,0.0,WeatherDisplay:10.37,2013-01-24 18:08:00,
2013-01-24 19:13:00,29.8,25.6,29.68,NNW,338,5.8,5.8,84,0.00,CLR,,0.01,0.0,WeatherDisplay:10.37,2013-01-24 18:13:00,
2013-01-24 19:18:00,29.8,25.0,29.68,NNE,22,6.9,6.9,82,0.00,CLR,,0.01,0.0,WeatherDisplay:10.37,2013-01-24 18:18:00,
2013-01-24 19:23:00,30.0,25.2,29.71,NNE,22,5.9,5.9,82,0.00,RA,,0.00,0.0,WeatherDisplay:10.37,2013-01-24 18:23:00,
2013-01-24 19:28:00,30.0,24.9,29.71,NNE,22,5.9,5.9,81,0.00,RA,,0.00,0.0,WeatherDisplay:10.37,2013-01-24 18:28:00,
2013-01-24 19:33:00,30.0,24.6,29.71,NNE,22,5.9,5.9,80,0.00,CLR,,0.00,0.0,WeatherDisplay:10.37,2013-01-24 18:33:00,
2013-01-24 19:38:00,29.8,24.4,29.71,NNE,22,5.9,5.9,80,0.00,CLR,,0.00,0.0,WeatherDisplay:10.37,2013-01-24 18:38:00,
2013-01-24 19:43:00,29.8,24.4,29.71,NNE,22,5.9,5.9,80,0.00,CLR,,0.00,0.0,WeatherDisplay:10.37,2013-01-24 18:43:00,
2013-01-24 19:48:00,29.7,23.9,29.71,NNE,22,5.9,5.9,79,0.00,CLR,,0.00,0.0,WeatherDisplay:10.37,2013-01-24 18:48:00,
2013-01-24 19:53:00,29.7,23.9,29.65,NNE,22,5.9,5.9,79,0.00,CLR,,0.00,0.0,WeatherDisplay:10.37,2013-01-24 18:53:00,
2013-01-24 19:58:00,29.7,23.9,29.65,NNE,22,5.8,5.8,79,0.00,CLR,,0.00,0.0,WeatherDisplay:10.37,2013-01-24 18:58:00,
2013-01-24 20:03:00,29.7,23.9,29.65,North,0,3.6,3.6,79,0.00,CLR,,0.00,0.0,WeatherDisplay:10.37,2013-01-24 19:03:00,
2013-01-24 20:08:00,29.7,23.6,29.71,NNW,338,7.4,7.4,78,0.00,CLR,,0.00,0.0,WeatherDisplay:10.37,2013-01-24 19:08:00,
2013-01-24 20:13:00,29.8,23.8,29.71,NNE,22,3.5,5.4,78,0.00,CLR,,0.00,0.0,WeatherDisplay:10.37,2013-01-24 19:13:00,
2013-01-24 20:18:00,29.7,23.3,29.71,NNE,22,9.2,9.2,77,0.00,CLR,,0.00,0.0,WeatherDisplay:10.37,2013-01-24 19:18:00,
2013-01-24 20:23:00,29.7,23.3,29.74,North,0,3.5,4.0,77,0.00,CLR,,0.00,0.0,WeatherDisplay:10.37,2013-01-24 19:23:00,
2013-01-24 20:28:00,29.7,23.3,29.74,NNW,338,5.8,5.8,77,0.00,CLR,,0.00,0.0,WeatherDisplay:10.37,2013-01-24 19:28:00,
2013-01-24 20:33:00,29.7,23.3,29.74,NNE,22,4.7,4.7,77,0.00,CLR,,0.00,0.0,WeatherDisplay:10.37,2013-01-24 19:33:00,
2013-01-24 20:38:00,29.5,23.2,29.74,NNE,22,3.6,3.6,77,0.00,CLR,,0.00,0.0,WeatherDisplay:10.37,2013-01-24 19:38:00,
2013-01-24 20:43:00,29.5,23.2,29.74,NNW,338,4.6,4.6,77,0.00,CLR,,0.00,0.0,WeatherDisplay:10.37,2013-01-24 19:43:00,
2013-01-24 20:48:00,29.5,23.2,29.74,NE,45,3.6,4.5,77,0.00,CLR,,0.00,0.0,WeatherDisplay:10.37,2013-01-24 19:48:00,
2013-01-24 20:53:00,29.5,23.2,29.65,NNW,338,4.9,4.9,77,0.00,CLR,,0.00,0.0,WeatherDisplay:10.37,2013-01-24 19:53:00,
2013-01-24 20:58:00,29.5,23.2,29.65,WNW,292,3.5,3.5,77,0.00,CLR,,0.00,0.0,WeatherDisplay:10.37,2013-01-24 19:58:00,
2013-01-24 21:03:00,29.5,23.2,29.65,WNW,292,3.5,3.5,77,0.00,CLR,,0.00,0.0,WeatherDisplay:10.37,2013-01-24 20:03:00,
2013-01-24 21:08:00,29.7,23.3,29.71,WNW,292,3.5,3.5,77,0.00,CLR,,0.00,0.0,WeatherDisplay:10.37,2013-01-24 20:08:00,
2013-01-24 21:13:00,29.7,23.0,29.71,WNW,292,3.5,3.5,76,0.00,CLR,,0.00,0.0,WeatherDisplay:10.37,2013-01-24 20:13:00,
2013-01-24 21:18:00,29.7,23.0,29.71,WNW,292,3.5,3.5,76,0.00,CLR,,0.00,0.0,WeatherDisplay:10.37,2013-01-24 20:18:00,
2013-01-24 21:23:00,29.7,23.0,29.65,WNW,292,3.5,3.5,76,0.00,CLR,,0.00,0.0,WeatherDisplay:10.37,2013-01-24 20:23:00,
2013-01-24 21:28:00,29.7,23.0,29.65,WNW,292,3.5,3.5,76,0.00,CLR,,0.00,0.0,WeatherDisplay:10.37,2013-01-24 20:28:00,
2013-01-24 21:33:00,29.5,22.5,29.65,WNW,292,3.5,3.5,75,0.00,CLR,,0.00,0.0,WeatherDisplay:10.37,2013-01-24 20:33:00,
2013-01-24 21:38:00,29.7,22.7,29.68,WNW,292,3.5,3.5,75,0.00,CLR,,0.00,0.0,WeatherDisplay:10.37,2013-01-24 20:38:00,
2013-01-24 21:43:00,29.7,22.7,29.68,WNW,292,3.5,3.5,75,0.00,CLR,,0.00,0.0,WeatherDisplay:10.37,2013-01-24 20:43:00,
2013-01-24 21:48:00,29.8,22.6,29.68,WNW,292,3.5,3.5,74,0.00,CLR,,0.00,0.0,WeatherDisplay:10.37,2013-01-24 20:48:00,
2013-01-24 21:53:00,29.8,22.6,29.68,NNE,22,3.5,4.5,74,0.00,CLR,,0.00,0.0,WeatherDisplay:10.37,2013-01-24 20:53:00,
2013-01-24 21:58:00,29.8,22.6,29.68,NNW,338,5.9,5.9,74,0.00,CLR,,0.00,0.0,WeatherDisplay:10.37,2013-01-24 20:58:00,
2013-01-24 22:03:00,29.8,22.2,29.68,NNW,338,5.9,5.9,73,0.00,CLR,,0.00,0.0,WeatherDisplay:10.37,2013-01-24 21:03:00,
2013-01-24 22:08:00,29.8,22.2,29.68,NNW,338,5.9,5.9,73,0.00,CLR,,0.00,0.0,WeatherDisplay:10.37,2013-01-24 21:08:00,
2013-01-24 22:13:00,29.7,22.1,29.68,NNW,338,4.6,4.9,73,0.00,CLR,,0.00,0.0,WeatherDisplay:10.37,2013-01-24 21:13:00,
2013-01-24 22:18:00,29.7,22.1,29.68,NNE,22,5.8,5.8,73,0.00,CLR,,0.00,0.0,WeatherDisplay:10.37,2013-01-24 21:18:00,
2013-01-24 22:23:00,29.7,22.1,29.68,NNE,22,3.6,4.5,73,0.00,CLR,,0.00,0.0,WeatherDisplay:10.37,2013-01-24 21:23:00,
2013-01-24 22:28:00,29.7,21.7,29.68,NNE,22,8.1,8.1,72,0.00,CLR,,0.00,0.0,WeatherDisplay:10.37,2013-01-24 21:28:00,
2013-01-24 22:33:00,29.8,21.9,29.68,NNE,22,4.6,4.6,72,0.00,CLR,,0.00,0.0,WeatherDisplay:10.37,2013-01-24 21:33:00,
2013-01-24 22:38:00,29.8,21.9,29.65,NW,315,6.9,6.9,72,0.00,CLR,,0.00,0.0,WeatherDisplay:10.37,2013-01-24 21:38:00,
2013-01-24 22:43:00,29.8,21.6,29.65,NW,315,6.9,6.9,71,0.00,CLR,,0.00,0.0,WeatherDisplay:10.37,2013-01-24 21:43:00,
2013-01-24 22:48:00,29.7,21.4,29.65,NW,315,6.9,6.9,71,0.00,CLR,,0.00,0.0,WeatherDisplay:10.37,2013-01-24 21:48:00,
2013-01-24 22:53:00,29.7,21.4,29.71,North,0,6.9,6.9,71,0.00,CLR,,0.00,0.0,WeatherDisplay:10.37,2013-01-24 21:53:00,
2013-01-24 22:58:00,29.7,21.4,29.71,NNW,338,6.0,6.0,71,0.00,CLR,,0.00,0.0,WeatherDisplay:10.37,2013-01-24 21:58:00,
2013-01-24 23:03:00,29.5,21.2,29.71,NNW,338,5.8,5.8,71,0.00,CLR,,0.00,0.0,WeatherDisplay:10.37,2013-01-24 22:03:00,
2013-01-24 23:08:00,29.5,20.9,29.65,ENE,68,8.1,8.1,70,0.00,CLR,,0.00,0.0,WeatherDisplay:10.37,2013-01-24 22:08:00,
2013-01-24 23:13:00,29.5,21.2,29.65,North,0,3.6,4.5,71,0.00,CLR,,0.00,0.0,WeatherDisplay:10.37,2013-01-24 22:13:00,
2013-01-24 23:18:00,29.3,21.1,29.65,North,0,3.6,4.5,71,0.00,CLR,,0.00,0.0,WeatherDisplay:10.37,2013-01-24 22:18:00,
2013-01-24 23:23:00,29.1,20.6,29.71,NNE,22,6.0,6.0,70,0.00,CLR,,0.00,0.0,WeatherDisplay:10.37,2013-01-24 22:23:00,
2013-01-24 23:28:00,29.1,20.6,29.71,NNW,338,4.6,4.6,70,0.00,CLR,,0.00,0.0,WeatherDisplay:10.37,2013-01-24 22:28:00,
2013-01-24 23:33:00,28.9,20.7,29.71,NNW,338,3.8,3.8,71,0.00,CLR,,0.00,0.0,WeatherDisplay:10.37,2013-01-24 22:33:00,
2013-01-24 23:38:00,28.8,20.5,29.68,NNW,338,4.6,4.6,71,0.00,CLR,,0.00,0.0,WeatherDisplay:10.37,2013-01-24 22:38:00,
2013-01-24 23:43:00,28.6,20.4,29.68,NNW,338,2.9,3.3,71,0.00,CLR,,0.00,0.0,WeatherDisplay:10.37,2013-01-24 22:43:00,
2013-01-24 23:48:00,28.6,20.0,29.68,NE,45,5.8,5.8,70,0.00,CLR,,0.00,0.0,WeatherDisplay:10.37,2013-01-24 22:48:00,
2013-01-24 23:53:00,28.6,20.0,29.65,NNW,338,4.9,4.9,70,0.00,CLR,,0.00,0.0,WeatherDisplay:10.37,2013-01-24 22:53:00,
2013-01-24 23:58:00,28.6,20.0,29.65,NW,315,5.8,5.8,70,0.00,CLR,,0.00,0.0,WeatherDisplay:10.37,2013-01-24 22:58:00,